TYW24 EFHK-EGAA

Flight info

Callsign TYW24
Flight time N/A
Altitude 43000
Route ADIVO DCT POGOK DCT OGLOB DCT ELRID DCT TEB DCT BEDLA DCT NIVUN DCT RIVOT DCT SAB DCT TLA DCT TRN DCT BLACA DCT BEL
Aircraft GLF5/M-SFGHIRWXY/S

Departure

Time 2026-04-24 09:41
Airport Helsinki Vantaa Airport (EFHK)

Arrival

Time N/A
Airport Belfast International Airport (EGAA)
Time Latitude Longitude Altitude Speed Heading
2026-04-24 09:40 60.30786 24.98748 172 ft 0 kts 333°
2026-04-24 09:41 60.30863 24.98669 172 ft 47 kts 333°
2026-04-24 09:41 60.31500 24.98014 184 ft 150 kts 333°
2026-04-24 09:41 60.32431 24.97084 1489 ft 144 kts 333°
2026-04-24 09:41 60.33133 24.96173 2421 ft 137 kts 309°
2026-04-24 09:42 60.33336 24.93982 2547 ft 186 kts 263°
2026-04-24 09:42 60.32674 24.91384 2663 ft 218 kts 245°
2026-04-24 09:42 60.31812 24.88603 2945 ft 237 kts 250°
2026-04-24 09:42 60.31146 24.85398 4059 ft 253 kts 259°
2026-04-24 09:43 60.30705 24.82086 5683 ft 249 kts 265°
2026-04-24 09:43 60.30389 24.78625 7110 ft 255 kts 269°
2026-04-24 09:43 60.30157 24.75044 8470 ft 262 kts 271°
2026-04-24 09:43 60.29974 24.71406 9820 ft 269 kts 272°
2026-04-24 09:44 60.29816 24.67613 11016 ft 280 kts 274°
2026-04-24 09:44 60.29740 24.63465 11470 ft 316 kts 278°
2026-04-24 09:44 60.29755 24.58719 11951 ft 349 kts 277°
2026-04-24 09:44 60.29757 24.53885 13311 ft 353 kts 278°
2026-04-24 09:45 60.29766 24.48823 14386 ft 366 kts 278°
2026-04-24 09:45 60.29771 24.43693 15799 ft 368 kts 279°
2026-04-24 09:45 60.29778 24.38453 17011 ft 377 kts 279°
2026-04-24 09:45 60.29782 24.33106 18220 ft 384 kts 278°
2026-04-24 09:46 60.29784 24.27662 19420 ft 392 kts 278°
2026-04-24 09:46 60.29782 24.22123 20746 ft 396 kts 278°
2026-04-24 09:46 60.29780 24.16505 21910 ft 404 kts 277°
2026-04-24 09:46 60.29774 24.10825 23066 ft 411 kts 277°
2026-04-24 09:47 60.29767 24.04979 24201 ft 418 kts 277°
2026-04-24 09:47 60.29731 23.99067 25214 ft 429 kts 274°
2026-04-24 09:47 60.29213 23.92910 26199 ft 445 kts 264°
2026-04-24 09:47 60.28536 23.86776 27110 ft 455 kts 264°
2026-04-24 09:48 60.27835 23.80383 28121 ft 461 kts 264°
2026-04-24 09:48 60.27135 23.73972 28962 ft 470 kts 264°
2026-04-24 09:48 60.26420 23.67461 29902 ft 476 kts 264°
2026-04-24 09:48 60.25686 23.60791 30656 ft 484 kts 264°
2026-04-24 09:49 60.24942 23.54089 31624 ft 484 kts 264°
2026-04-24 09:49 60.24204 23.47471 32770 ft 479 kts 264°
2026-04-24 09:49 60.23468 23.40879 33653 ft 479 kts 263°
2026-04-24 09:49 60.22725 23.34265 34610 ft 476 kts 263°
2026-04-24 09:50 60.21989 23.27742 35371 ft 475 kts 263°
2026-04-24 09:50 60.21243 23.21167 36077 ft 475 kts 262°
2026-04-24 09:50 60.20493 23.14594 36968 ft 472 kts 263°
2026-04-24 09:50 60.19759 23.08170 37748 ft 472 kts 262°
2026-04-24 09:51 60.19009 23.01650 38393 ft 473 kts 262°
2026-04-24 09:51 60.18251 22.95093 39058 ft 473 kts 262°
2026-04-24 09:51 60.17498 22.88616 39728 ft 472 kts 262°
2026-04-24 09:51 60.16747 22.82175 40241 ft 472 kts 262°
2026-04-24 09:52 60.15977 22.75604 40772 ft 471 kts 262°
2026-04-24 09:52 60.15217 22.69152 41200 ft 473 kts 262°
2026-04-24 09:52 60.14446 22.62629 41650 ft 473 kts 262°
2026-04-24 09:52 60.13677 22.56165 42100 ft 474 kts 261°
2026-04-24 09:53 60.12901 22.49666 42515 ft 474 kts 261°
2026-04-24 09:53 60.12118 22.43141 42947 ft 474 kts 261°
2026-04-24 09:53 60.11334 22.36623 43109 ft 483 kts 261°
2026-04-24 09:53 60.10524 22.29930 43126 ft 495 kts 260°
2026-04-24 09:54 60.09689 22.23061 43125 ft 506 kts 260°
2026-04-24 09:54 60.08826 22.16006 43137 ft 517 kts 260°
2026-04-24 09:54 60.07050 22.01583 43135 ft 535 kts 259°
2026-04-24 09:55 60.05208 21.86781 43129 ft 539 kts 259°
2026-04-24 09:55 60.03366 21.72125 43126 ft 530 kts 259°
2026-04-24 09:56 60.01541 21.57729 43127 ft 531 kts 259°
2026-04-24 09:56 59.99675 21.43162 43128 ft 533 kts 259°
2026-04-24 09:57 59.99021 21.35820 43118 ft 526 kts 271°
2026-04-24 09:57 59.98863 21.28479 43129 ft 526 kts 271°
2026-04-24 09:57 59.98513 21.13631 43131 ft 527 kts 271°
2026-04-24 09:58 59.98138 20.98831 43130 ft 527 kts 271°
2026-04-24 09:58 59.97746 20.83972 43137 ft 527 kts 271°
2026-04-24 09:59 59.97337 20.69151 43136 ft 528 kts 271°
2026-04-24 09:59 59.96912 20.54302 43143 ft 527 kts 271°
2026-04-24 10:00 59.96468 20.39418 43148 ft 528 kts 271°
2026-04-24 10:00 59.96012 20.24675 43150 ft 528 kts 270°
2026-04-24 10:01 59.95538 20.09882 43151 ft 530 kts 270°
2026-04-24 10:01 59.95046 19.95092 43150 ft 529 kts 270°
2026-04-24 10:02 59.94535 19.80194 43154 ft 529 kts 270°
2026-04-24 10:02 59.94009 19.65353 43160 ft 529 kts 270°
2026-04-24 10:03 59.93372 19.50570 43148 ft 533 kts 262°
2026-04-24 10:03 59.92074 19.43491 43192 ft 540 kts 245°
2026-04-24 10:03 59.90031 19.37115 43187 ft 545 kts 238°
2026-04-24 10:04 59.85609 19.24571 43171 ft 546 kts 237°
2026-04-24 10:04 59.81172 19.12161 43172 ft 546 kts 236°
2026-04-24 10:05 59.76700 18.99728 43182 ft 546 kts 236°
2026-04-24 10:05 59.72234 18.87379 43186 ft 546 kts 236°
2026-04-24 10:06 59.65556 18.69035 43197 ft 546 kts 236°
2026-04-24 10:07 59.61073 18.56797 43200 ft 546 kts 236°
2026-04-24 10:07 59.56864 18.44282 43189 ft 539 kts 250°
2026-04-24 10:08 59.54651 18.30245 43210 ft 538 kts 256°
2026-04-24 10:08 59.53468 18.15836 43243 ft 525 kts 278°
2026-04-24 10:09 59.54232 18.01437 43226 ft 525 kts 280°
2026-04-24 10:09 59.55025 17.86928 43236 ft 525 kts 280°
2026-04-24 10:10 59.55797 17.72539 43243 ft 525 kts 280°
2026-04-24 10:10 59.56555 17.58118 43254 ft 526 kts 280°
2026-04-24 10:11 59.57296 17.43697 43254 ft 526 kts 280°
2026-04-24 10:11 59.58027 17.29152 43259 ft 527 kts 279°
2026-04-24 10:12 59.58738 17.14693 43260 ft 527 kts 279°
2026-04-24 10:12 59.59439 17.00096 43273 ft 527 kts 279°
2026-04-24 10:13 59.60121 16.85562 43271 ft 528 kts 279°
2026-04-24 10:13 59.60790 16.70951 43275 ft 528 kts 279°
2026-04-24 10:14 59.61439 16.56406 43277 ft 528 kts 279°
2026-04-24 10:14 59.62072 16.41868 43280 ft 528 kts 279°
2026-04-24 10:15 59.62687 16.27314 43279 ft 529 kts 278°
2026-04-24 10:15 59.62548 16.19909 43295 ft 535 kts 265°
2026-04-24 10:15 59.61761 16.12571 43300 ft 540 kts 259°
2026-04-24 10:16 59.60032 15.97992 43292 ft 540 kts 260°
2026-04-24 10:16 59.58317 15.83509 43302 ft 539 kts 260°
2026-04-24 10:17 59.56583 15.68989 43308 ft 539 kts 260°
2026-04-24 10:17 59.54835 15.54503 43313 ft 539 kts 260°
2026-04-24 10:18 59.53084 15.40143 43311 ft 539 kts 260°
2026-04-24 10:18 59.51297 15.25630 43309 ft 540 kts 259°
2026-04-24 10:19 59.49498 15.11175 43321 ft 540 kts 259°
2026-04-24 10:19 59.47662 14.96555 43320 ft 540 kts 259°
2026-04-24 10:20 59.45832 14.82130 43318 ft 539 kts 259°
2026-04-24 10:20 59.43994 14.67785 43333 ft 539 kts 259°
2026-04-24 10:21 59.42137 14.53430 43339 ft 539 kts 259°
2026-04-24 10:21 59.40263 14.39082 43345 ft 540 kts 259°
2026-04-24 10:22 59.38385 14.24840 43347 ft 539 kts 258°
2026-04-24 10:22 59.36476 14.10489 43354 ft 539 kts 258°
2026-04-24 10:23 59.34542 13.96094 43347 ft 539 kts 258°
2026-04-24 10:23 59.32608 13.81824 43363 ft 539 kts 258°
2026-04-24 10:24 59.30654 13.67551 43349 ft 538 kts 258°
2026-04-24 10:24 59.28686 13.53300 43359 ft 539 kts 257°
2026-04-24 10:25 59.26702 13.39055 43361 ft 538 kts 257°
2026-04-24 10:25 59.24705 13.24842 43360 ft 538 kts 257°
2026-04-24 10:26 59.22686 13.10615 43365 ft 538 kts 257°
2026-04-24 10:26 59.20650 12.96385 43382 ft 538 kts 257°
2026-04-24 10:27 59.18612 12.82266 43382 ft 537 kts 256°
2026-04-24 10:27 59.16562 12.68192 43388 ft 537 kts 256°
2026-04-24 10:28 59.14501 12.54160 43390 ft 536 kts 256°
2026-04-24 10:28 59.12415 12.40078 43397 ft 536 kts 256°
2026-04-24 10:29 59.10329 12.26113 43399 ft 536 kts 255°
2026-04-24 10:29 59.08223 12.12132 43402 ft 535 kts 255°
2026-04-24 10:30 59.06089 11.98089 43404 ft 535 kts 255°
2026-04-24 10:30 59.03943 11.84076 43422 ft 534 kts 255°
2026-04-24 10:31 59.01804 11.70227 43416 ft 533 kts 255°
2026-04-24 10:31 58.99641 11.56334 43419 ft 533 kts 255°
2026-04-24 10:32 58.98119 11.46626 43430 ft 533 kts 255°
2026-04-24 10:32 58.95960 11.32951 43440 ft 532 kts 254°
2026-04-24 10:33 58.93738 11.18987 43445 ft 531 kts 254°
2026-04-24 10:33 58.91524 11.05185 43439 ft 531 kts 254°
2026-04-24 10:34 58.89297 10.91404 43433 ft 530 kts 254°
2026-04-24 10:34 58.87060 10.77679 43433 ft 530 kts 253°
2026-04-24 10:35 58.84795 10.63884 43433 ft 530 kts 253°
2026-04-24 10:35 58.83652 10.56964 43321 ft 533 kts 253°
2026-04-24 10:35 58.82518 10.50129 43283 ft 531 kts 253°
2026-04-24 10:36 58.80233 10.36424 43278 ft 529 kts 253°
2026-04-24 10:36 58.77927 10.22701 43278 ft 531 kts 252°
2026-04-24 10:37 58.75602 10.08974 43277 ft 531 kts 252°
2026-04-24 10:37 58.73270 9.95311 43275 ft 530 kts 252°
2026-04-24 10:38 58.70928 9.81689 43277 ft 530 kts 252°
2026-04-24 10:38 58.68585 9.68156 43282 ft 531 kts 252°
2026-04-24 10:39 58.66224 9.54624 43283 ft 529 kts 252°
2026-04-24 10:39 58.63842 9.41076 43288 ft 529 kts 252°
2026-04-24 10:40 58.61440 9.27507 43290 ft 530 kts 251°
2026-04-24 10:40 58.59049 9.14107 43294 ft 529 kts 251°
2026-04-24 10:41 58.56632 9.00652 43298 ft 528 kts 251°
2026-04-24 10:41 58.54229 8.87370 43299 ft 528 kts 251°
2026-04-24 10:42 58.51797 8.74027 43300 ft 529 kts 251°
2026-04-24 10:42 58.49339 8.60630 43303 ft 529 kts 251°
2026-04-24 10:43 58.46879 8.47319 43305 ft 528 kts 251°
2026-04-24 10:43 58.44406 8.34029 43304 ft 529 kts 250°
2026-04-24 10:44 58.41903 8.20675 43303 ft 529 kts 250°
2026-04-24 10:44 58.39388 8.07348 43303 ft 529 kts 250°
2026-04-24 10:45 58.36860 7.94046 43297 ft 529 kts 250°
2026-04-24 10:45 58.34338 7.80864 43296 ft 529 kts 250°
2026-04-24 10:46 58.31789 7.67628 43301 ft 530 kts 250°
2026-04-24 10:46 58.29225 7.54410 43299 ft 529 kts 250°
2026-04-24 10:47 58.26628 7.41108 43300 ft 530 kts 250°
2026-04-24 10:47 58.24031 7.27895 43298 ft 530 kts 249°
2026-04-24 10:48 58.21412 7.14664 43300 ft 530 kts 249°
2026-04-24 10:48 58.18789 7.01497 43303 ft 530 kts 249°
2026-04-24 10:49 58.16147 6.88323 43304 ft 530 kts 249°
2026-04-24 10:49 58.13480 6.75116 43294 ft 529 kts 249°
2026-04-24 10:50 58.10798 6.61917 43291 ft 528 kts 249°
2026-04-24 10:50 58.08120 6.48822 43282 ft 528 kts 249°
2026-04-24 10:51 58.05423 6.35724 43284 ft 527 kts 249°
2026-04-24 10:51 58.02726 6.22710 43287 ft 527 kts 248°
2026-04-24 10:52 58.00011 6.09694 43294 ft 526 kts 248°
2026-04-24 10:52 57.97271 5.96642 43290 ft 525 kts 248°
2026-04-24 10:53 57.94545 5.83735 43284 ft 526 kts 248°
2026-04-24 10:53 57.91787 5.70765 43293 ft 525 kts 248°
2026-04-24 10:54 57.89025 5.57854 43291 ft 525 kts 248°
2026-04-24 10:54 57.86243 5.44930 43291 ft 525 kts 248°
2026-04-24 10:55 57.83460 5.32079 43295 ft 525 kts 247°
2026-04-24 10:55 57.80656 5.19218 43304 ft 525 kts 247°
2026-04-24 10:56 57.77833 5.06345 43299 ft 524 kts 247°
2026-04-24 10:56 57.75019 4.93597 43317 ft 524 kts 247°
2026-04-24 10:57 57.72171 4.80768 43320 ft 524 kts 247°
2026-04-24 10:57 57.69320 4.68004 43316 ft 524 kts 247°
2026-04-24 10:58 57.66452 4.55242 43320 ft 524 kts 247°
2026-04-24 10:58 57.63599 4.42627 43319 ft 523 kts 247°
2026-04-24 10:59 57.60709 4.29924 43319 ft 523 kts 246°
2026-04-24 10:59 57.57805 4.17247 43314 ft 523 kts 245°
2026-04-24 11:00 57.54228 4.05167 43320 ft 524 kts 239°
2026-04-24 11:00 57.50439 3.93439 43314 ft 523 kts 239°
2026-04-24 11:01 57.46643 3.81782 43314 ft 522 kts 239°
2026-04-24 11:01 57.42817 3.70090 43310 ft 523 kts 239°
2026-04-24 11:02 57.38977 3.58414 43315 ft 523 kts 239°
2026-04-24 11:02 57.35110 3.46712 43312 ft 523 kts 239°
2026-04-24 11:03 57.31235 3.35048 43307 ft 523 kts 239°
2026-04-24 11:03 57.27362 3.23441 43311 ft 522 kts 238°
2026-04-24 11:04 57.23499 3.11924 43307 ft 522 kts 238°
2026-04-24 11:04 57.19605 3.00369 43315 ft 522 kts 238°
2026-04-24 11:05 57.15689 2.88803 43322 ft 523 kts 238°
2026-04-24 11:05 57.11756 2.77246 43307 ft 522 kts 238°
2026-04-24 11:06 57.07852 2.65829 43306 ft 522 kts 238°
2026-04-24 11:06 57.03921 2.54387 43294 ft 522 kts 238°
2026-04-24 11:07 56.98010 2.37282 43296 ft 522 kts 238°
2026-04-24 11:07 56.94062 2.25926 43291 ft 522 kts 237°
2026-04-24 11:08 56.90107 2.14604 43285 ft 522 kts 237°
2026-04-24 11:08 56.86117 2.03232 43280 ft 521 kts 237°
2026-04-24 11:09 56.82151 1.91985 43277 ft 522 kts 237°
2026-04-24 11:09 56.78147 1.80681 43278 ft 521 kts 237°
2026-04-24 11:10 56.74147 1.69443 43274 ft 521 kts 237°
2026-04-24 11:10 56.70153 1.58274 43275 ft 521 kts 237°
2026-04-24 11:11 56.66125 1.47057 43277 ft 521 kts 237°
2026-04-24 11:11 56.62101 1.35910 43277 ft 521 kts 237°
2026-04-24 11:12 56.58071 1.24793 43275 ft 521 kts 237°
2026-04-24 11:12 56.54023 1.13679 43274 ft 520 kts 237°
2026-04-24 11:13 56.49990 1.02658 43276 ft 521 kts 237°
2026-04-24 11:13 56.45909 0.91555 43280 ft 519 kts 237°
2026-04-24 11:14 56.41852 0.80559 43274 ft 520 kts 237°
2026-04-24 11:14 56.40303 0.74738 43281 ft 517 kts 253°
2026-04-24 11:14 56.39344 0.68415 43284 ft 518 kts 256°
2026-04-24 11:15 56.37392 0.55707 43280 ft 518 kts 255°